星链-2237 (STARLINK-2237 )

导读 | 豆包AI

STARLINK-2237是美国SpaceX公司星链星座的成员卫星,于2021年5月15日由猎鹰9号火箭发射升空,属于星链一代组网卫星。星链旨在构建全球卫星互联网通信系统,该卫星重量约386kg,运行于近地轨道,配备太阳能电池阵与相控阵天线,可为全球用户提供宽带互联网接入服务,设计寿命5至7年,退役后会按计划离轨再入大气层。

基本信息
目录编号:
48583
目录名称:
STARLINK-2237
国际标识:
2021-041AG
轨道中心:
EARTH
卫星名称:
星链-2237
卫星全名:
星链-2237 (STARLINK-2237 )
卫星状态:
在轨 (已飞行1764 天)
发射日期:
2021-05-15 UTC
国别 :
美国 (US)
星等 :
--
轨道信息
数据来源 国际轨道数据
星历时间: 2026-03-14T14:34:45+0800
9小时前
查看轨道信息
半长轴: 6925.357km
偏心率: 0.0001256
轨道倾角: 53.054°
近地点辐角 81.743°
升交点赤经 121.039°
平近点角 278.370°
近地点: 546.35km
远地点: 548.09km
周期: 95.592分钟
每日圈数: 15.063974
详细信息
固有亮度:
5
最大亮度:
2.5
卫星平台:
Starlink V1.0
覆盖范围:
全球
运营商:
太空探索技术公司
运营商所在国:
美国
制造商(研发单位):
太空探索技术公司
制造商所在国:
美国
使用方式:
暂无
卫星简介
星链(Starlink)计划是由太空探索技术公司(SpaceX)提出的一个巨型低轨卫星互联网星座项目,计划在2019年至2024年间在太空搭建由约1.2万颗卫星组成的“星链”网络,其中1584颗将部署在地球上空550千米处的近地轨道,并从2020年开始工作。该卫星仍在工作。
2D轨道图
3D轨道图
轨道高度分析图
轨道倾角分析图
轨道综合分析图
查看轨道综合分析图